Starlink 34862

operational
NORAD ID: 65180 Int'l Des: 2025-175 Owner: SPXS Country: US Constellation: starlink
LEOCIRCULARRETROGRADESSO

Über Starlink 34862

Beschreibung wird geladen...

Live-Position

3D-Globus wird geladen...

Nächste Überflüge

Höhenverlauf

Altitude vs Time

uPlot chart will show altitude changes over time

Zweizeiliger Elementsatz

1 65180U 25175G 25341.28067782 .00005436 00000-0 38058-3 0 9990
2 65180 97.6004 211.5429 0001913 86.3909 273.7537 15.05654913 18733
Epoch: 7. Dez. 2025 • Age: 14 hours

Aktueller Status

Höhe 554.1 km
Geschwindigkeit 7.58 km/s
Subsatellitenpunkt -7.45°S, 9.37°E
Startdatum 14. Aug. 2025
Alter 0.3 years
Typ internet

Technische Details

Klassifizierung Payload
Masse 575.00 kg
Trockenmasse 530.00 kg
Gesamtmasse 575.00 kg
Länge 0.30 m
Durchmesser 4.10 m
Spannweite 29.00 m
Form Box + pan
Hersteller SPXS
Bus-Typ Starlink V2MO
Phasenstatus In Orbit
Besitzer/Staat SPXS/US

Große Konstellationen

Loading constellations...